Location: C.E.K. Mees Observatory
(42.7003°N, 77.4088°W)
Time: 19:43:41
(UTC-04:00)

Vanguard 1 Rocket - Visible Passes

Search period start: 20 April 2018 00:00
Search period end: 30 April 2018 00:00
Orbit: 655 x 4223 km, 34.3° (Epoch: 20 April)

Date Brightness Start Highest point End Pass type
(mag) Time Alt. Az. Time Alt. Az. Time Alt. Az.
20 Apr 11.6 05:15:04 10° S 05:25:59 16° SE 05:34:34 10° ESE visible
22 Apr 11.4 05:13:30 10° S 05:28:47 22° SE 05:39:52 10° ESE visible
23 Apr 11.7 04:05:04 10° SSE 04:15:41 15° SE 04:24:35 10° ESE visible
24 Apr 11.2 05:13:09 10° SSW 05:31:30 29° SSE 05:44:12 10° E visible
25 Apr 11.5 04:02:45 10° S 04:18:15 21° SE 04:30:31 10° E visible
26 Apr 11.7 02:56:56 10° SSE 03:05:04 12° SE 03:12:31 10° ESE visible
26 Apr 11.0 05:13:30 10° SSW 05:34:08 35° SSE 05:48:02 10° E visible
27 Apr 11.3 04:02:01 10° S 04:20:43 27° SE 04:35:05 10° E visible
28 Apr 11.6 02:53:33 10° SSE 03:07:24 18° SE 03:19:50 10° E visible
28 Apr 10.9 05:14:22 10° SSW 05:36:42 42° SSE 05:51:35 10° E visible
29 Apr 11.1 04:03:35 12° SSW 04:23:06 33° SE 04:39:03 10° E visible
